Retour au catalogue

GORIZONT 9

ActifCommunicationsGEO
NORAD 14940·PAYLOAD·🇷🇺 Russia

Lancé Apr 22, 1984 depuis Baikonur Cosmodrome

Loading…

TLE

FraisSource: Space-Track

Époque: Sep 14, 2026, 14:15 UTC

1 14940U 84041A   26257.59399442 -.00000284  00000-0  00000-0 0  9997
2 14940   8.5839 311.8187 0006136 293.0064  57.6994  1.00252788122831

Suivez GORIZONT 9 en temps réel avec AllMySat

Download on the App Store